1501423200.2,30720,25.13,74592.5,18.51,8.47,8.79,0,*4B
1501423201.4,30721,25.13,74590.0,18.51,8.79,9.11,0,*48
1501423202.61,30722,25.13,74590.3,18.49,8.83,9.07,0,*40
1501423203.86,30723,25.13,74588.8,18.49,8.93,9.11,0,*47
1501423205.09,30724,25.13,74592.8,18.49,9.29,9.53,0,*46
1501423206.33,30725,25.13,74588.5,18.49,9.39,9.43,0,*47
1501423207.56,30726,25.13,74592.5,18.45,9.71,9.85,0,*4E
1501423208.8,30727,25.13,74594.8,18.45,9.85,10.05,0,*74
1501423210.01,30728,25.13,74590.0,18.45,10.47,10.69,0,*47
1501423211.22,30729,25.13,74592.3,18.47,10.27,10.51,0,*49
1501423212.45,30730,25.13,74588.8,18.47,10.41,10.61,0,*42
1501423213.69,30731,25.13,74590.0,18.45,10.47,10.79,0,*4E
1501423214.92,30732,25.13,74590.3,18.47,10.37,10.65,0,*45
1501423216.13,30733,25.13,74588.8,18.47,9.95,10.19,0,*7F
1501423217.33,30734,25.13,74590.0,18.47,9.77,9.99,0,*44
1501423218.54,30735,25.13,74592.5,18.47,10.09,10.37,0,*48
1501423219.78,30736,25.13,74594.5,18.45,9.85,10.13,0,*73
1501423221.0,30737,25.13,74590.5,18.45,10.13,10.47,0,*44
1501423222.22,30738,25.13,74590.3,18.43,9.89,10.09,0,*7C
1501423223.43,30739,25.13,74592.3,18.43,8.79,9.01,0,*43
1501423224.66,30740,25.13,74588.3,18.41,8.65,8.93,0,*48
1501423225.9,30741,25.13,74590.0,18.41,8.59,8.87,0,*43
1501423227.16,30742,25.13,74588.3,18.37,9.39,9.49,0,*45
1501423228.39,30743,25.13,74588.3,18.35,8.71,9.03,0,*45
1501423229.59,30744,25.13,74590.5,18.33,9.25,9.57,0,*45
1501423230.8,30745,25.13,74588.8,18.33,8.93,9.21,0,*49
1501423232.05,30746,25.13,74590.8,18.31,8.89,9.11,0,*40
1501423233.28,30747,25.13,74594.8,18.31,8.55,8.83,0,*4A
1501423234.52,30748,25.13,74594.3,18.27,8.79,9.01,0,*47
1501423235.76,30749,25.13,74592.0,18.29,8.97,9.19,0,*41
1501423236.99,30750,25.13,74592.8,18.27,9.07,9.11,0,*47
1501423238.2,30751,25.06,74590.3,18.25,9.71,9.85,0,*48
1501423239.42,30752,25.13,74588.8,18.25,9.71,9.85,0,*4B
1501423240.66,30753,25.13,74590.0,18.25,9.35,9.49,0,*4A
1501423241.9,30754,25.13,74590.5,18.23,9.81,9.99,0,*49
1501423243.12,30755,25.13,74590.5,18.23,10.33,10.55,0,*41
1501423244.36,30756,25.13,74588.3,18.21,10.19,10.41,0,*4D
1501423245.58,30757,25.13,74588.0,18.23,10.47,10.69,0,*4F
1501423246.84,30758,25.13,74590.5,18.23,9.81,9.81,0,*4C
1501423248.08,30759,25.13,74590.5,18.19,9.39,9.47,0,*4D
1501423249.33,30760,25.13,74588.0,18.19,9.99,10.23,0,*77
1501423250.58,30761,25.13,74592.5,18.19,10.09,10.23,0,*47
1501423251.81,30762,25.13,74590.5,18.19,9.57,9.63,0,*4B
1501423253.08,30763,25.13,74592.0,18.19,9.77,9.85,0,*40
1501423254.31,30764,25.13,74590.3,18.19,9.19,9.33,0,*42
1501423255.52,30765,25.13,74590.3,18.13,9.15,9.33,0,*45
1501423256.7,30766,25.13,74592.3,18.13,9.99,9.99,0,*42
1501423257.88,30767,25.13,74594.5,18.13,9.91,9.99,0,*4B
1501423259.15,30768,25.13,74592.3,18.11,9.81,9.85,0,*4A
1501423260.36,30769,25.13,74588.5,18.11,9.47,9.47,0,*4F
1501423261.55,30770,25.13,74590.8,18.09,9.47,9.47,0,*4E
1501423262.77,30771,25.13,74590.5,18.09,9.75,9.77,0,*4D
1501423263.96,30772,25.13,74594.5,18.09,9.75,9.75,0,*4C
1501423265.18,30773,25.13,74590.8,18.07,10.09,10.17,0,*4C
1501423266.44,30774,25.13,74592.5,18.07,10.09,10.19,0,*45
1501423267.69,30775,25.13,74590.3,18.07,9.53,9.61,0,*44
1501423268.95,30776,25.13,74592.5,18.07,9.53,9.53,0,*46
1501423270.16,30777,25.13,74590.0,18.05,9.39,9.33,0,*4F
1501423271.34,30778,25.13,74592.8,18.05,9.95,9.99,0,*46
1501423272.58,30779,25.13,74590.3,18.05,9.49,9.39,0,*4C
1501423273.84,30780,25.13,74588.0,18.01,9.01,9.01,0,*49
1501423275.06,30781,25.13,74590.3,18.03,9.35,9.39,0,*46
1501423276.29,30782,25.13,74588.0,18.01,9.75,9.77,0,*49
1501423277.53,30783,25.13,74588.8,18.01,9.47,9.57,0,*4B
1501423278.73,30784,25.13,74588.8,17.97,9.75,9.75,0,*4D
1501423279.94,30785,25.13,74588.5,17.99,9.85,9.91,0,*47
1501423281.12,30786,25.13,74586.5,17.99,9.91,9.99,0,*49
1501423282.38,30787,25.13,74588.8,17.97,9.89,9.89,0,*4E
1501423283.55,30788,25.13,74590.0,17.99,9.99,9.99,0,*4F
1501423284.78,30789,25.13,74588.3,17.97,9.89,9.95,0,*4D
1501423286.01,30790,25.13,74588.5,17.97,9.33,9.39,0,*42
1501423287.2,30791,25.13,74590.5,17.95,10.03,10.03,0,*4B
1501423288.44,30792,25.13,74590.0,17.97,10.51,10.61,0,*49
1501423289.69,30793,25.13,74588.8,17.97,10.09,10.31,0,*40
1501423290.9,30794,25.13,74588.8,17.91,9.77,9.91,0,*42
1501423292.11,30795,25.13,74588.3,17.95,10.23,10.43,0,*49
1501423293.35,30796,25.13,74588.8,17.95,10.23,10.37,0,*49
1501423294.53,30797,25.13,74590.8,17.95,10.55,10.69,0,*42
1501423295.77,30798,25.13,74592.3,17.95,10.57,10.79,0,*4E
1501423296.96,30799,25.13,74588.8,17.95,10.03,10.05,0,*45
1501423298.15,30800,25.13,74590.0,17.95,9.95,10.05,0,*7D
1501423299.35,30801,25.13,74590.0,17.95,10.13,10.33,0,*4F
1501423300.57,30802,25.13,74588.3,17.91,10.09,10.23,0,*42
1501423301.76,30803,25.13,74590.5,17.91,10.51,10.55,0,*4F
1501423302.99,30804,25.13,74588.3,17.95,9.77,9.85,0,*45
1501423304.23,30805,25.13,74590.0,17.95,9.49,9.57,0,*46
1501423305.4,30806,25.13,74590.0,17.91,9.91,9.99,0,*46
1501423306.61,30807,25.13,74586.8,17.91,9.67,9.89,0,*4F
1501423307.78,30808,25.13,74588.0,17.91,9.33,9.33,0,*40
1501423309.02,30809,25.13,74590.5,17.89,9.33,9.53,0,*4E
1501423310.27,30810,25.13,74590.8,17.89,9.57,9.81,0,*4B
1501423311.52,30811,25.13,74588.8,17.87,9.85,10.19,0,*72
1501423312.76,30812,25.13,74590.0,17.87,9.53,9.77,0,*4A
1501423314.0,30813,25.13,74588.5,17.87,9.89,10.27,0,*71
1501423315.25,30814,25.13,74588.8,17.87,9.85,10.19,0,*77
1501423316.5,30815,25.13,74586.8,17.87,9.85,10.27,0,*7B
1501423317.7,30816,25.13,74590.5,17.87,10.17,10.55,0,*4E
1501423318.91,30817,25.13,74590.0,17.89,10.43,10.69,0,*4F
1501423320.12,30818,25.13,74588.3,17.87,10.09,10.41,0,*4A
1501423321.34,30819,25.13,74588.3,17.87,9.95,10.27,0,*76
1501423322.58,30820,25.13,74584.3,17.87,9.49,9.77,0,*40
1501423323.83,30821,25.13,74590.0,17.87,9.85,10.31,0,*7B
1501423325.06,30822,25.13,74590.5,17.89,9.47,9.77,0,*42
1501423326.33,30823,25.13,74590.0,17.89,9.89,10.23,0,*78
1501423327.53,30824,25.13,74590.5,17.87,9.53,9.95,0,*43
1501423328.75,30825,25.13,74590.0,17.89,10.03,10.51,0,*41
1501423330.02,30826,25.13,74588.3,17.89,9.81,10.31,0,*76
1501423331.28,30827,25.13,74584.0,17.89,9.57,10.19,0,*76
1501423332.52,30828,25.13,74590.0,17.89,10.03,10.57,0,*4A
1501423333.75,30829,25.13,74588.3,17.91,9.57,10.23,0,*78
1501423334.99,30830,25.13,74588.5,17.91,9.35,10.19,0,*7D
1501423336.2,30831,25.13,74590.0,17.89,9.63,10.33,0,*7E
1501423337.41,30832,25.13,74588.5,17.89,8.65,9.43,0,*45
1501423338.6,30833,25.13,74588.0,17.89,8.69,9.63,0,*4A
1501423339.85,30834,25.13,74590.0,17.89,9.11,10.13,0,*7C
1501423341.1,30835,25.13,74590.0,17.89,8.75,9.89,0,*45
1501423342.28,30836,25.13,74586.8,17.87,8.65,9.95,0,*44
1501423343.52,30837,25.13,74590.8,17.89,8.97,10.33,0,*72
1501423344.73,30838,25.13,74588.5,17.89,9.21,10.55,0,*71
1501423345.98,30839,25.13,74590.3,17.89,9.15,10.57,0,*75
1501423347.17,30840,25.13,74588.8,17.91,9.07,10.51,0,*77
1501423348.38,30841,25.13,74592.3,17.91,9.15,10.69,0,*7E
1501423349.61,30842,25.13,74592.3,17.91,8.97,10.57,0,*7B
1501423350.85,30843,25.13,74588.3,17.95,8.89,10.61,0,*74
1501423352.09,30844,25.13,74588.8,17.95,8.89,10.79,0,*7A
1501423353.32,30845,25.13,74590.3,17.97,8.45,10.37,0,*73
1501423354.53,30846,25.13,74590.5,17.97,8.45,10.47,0,*77
1501423355.76,30847,25.13,74594.5,17.97,8.61,10.61,0,*74
1501423357.0,30848,25.13,74590.0,17.97,8.65,10.61,0,*7F
1501423358.24,30849,25.13,74592.5,17.97,8.55,10.51,0,*7E
1501423359.47,30850,25.13,74594.3,18.01,8.47,10.43,0,*76
1501423360.69,30851,25.13,74592.3,18.01,8.45,10.33,0,*72
1501423361.93,30852,25.13,74588.3,18.01,8.59,10.33,0,*7C
1501423363.17,30853,25.13,74588.8,18.01,8.89,10.55,0,*70
1501423364.35,30854,25.13,74588.0,18.03,9.25,10.69,0,*7D
1501423365.59,30855,25.13,74590.8,18.03,9.39,10.79,0,*70
1501423366.83,30856,25.13,74590.3,18.07,9.75,11.03,0,*73
1501423368.11,30857,25.13,74590.0,18.07,9.49,10.71,0,*79
1501423369.33,30858,25.13,74588.8,18.09,9.75,10.99,0,*71
1501423370.57,30859,25.13,74590.5,18.09,9.77,10.95,0,*7E
1501423371.79,30860,25.13,74586.3,18.11,10.03,11.13,0,*49
1501423372.99,30861,25.13,74588.3,18.13,10.05,11.13,0,*4C
1501423374.18,30862,25.13,74590.8,18.17,9.75,10.85,0,*7A
1501423375.42,30863,25.13,74590.8,18.17,9.61,10.83,0,*78
1501423376.67,30864,25.13,74588.3,18.17,9.81,11.03,0,*78
1501423377.85,30865,25.13,74588.0,18.21,9.99,11.17,0,*70
1501423379.06,30866,25.13,74590.5,18.19,9.63,10.85,0,*77
1501423380.3,30867,25.13,74588.5,18.21,9.89,10.95,0,*78
1501423381.52,30868,25.13,74592.3,18.21,10.09,11.07,0,*4D
1501423382.76,30869,25.13,74590.8,18.21,10.23,11.27,0,*46
1501423384.0,30870,25.13,74590.3,18.21,10.31,11.31,0,*4A
1501423385.22,30871,25.13,74586.5,18.25,10.61,11.55,0,*48
1501423386.46,30872,25.13,74590.8,18.27,10.17,11.07,0,*4F
1501423387.71,30873,25.13,74592.0,18.27,10.17,10.95,0,*44
1501423388.95,30874,25.13,74590.5,18.27,9.99,10.75,0,*73
1501423390.2,30875,25.13,74586.3,18.27,10.09,10.75,0,*43
1501423391.4,30876,25.13,74588.5,18.27,10.51,11.17,0,*48
1501423392.62,30877,25.13,74590.8,18.27,10.33,10.93,0,*40
1501423393.83,30878,25.13,74590.0,18.27,10.55,11.09,0,*4D
1501423395.08,30879,25.13,74590.0,18.27,10.95,11.47,0,*4A
1501423396.27,30880,25.13,74588.5,18.29,10.93,11.47,0,*44
1501423397.48,30881,25.13,74588.5,18.29,10.41,10.85,0,*45
1501423398.72,30882,25.13,74586.5,18.29,9.85,10.31,0,*79
1501423399.93,30883,25.13,74590.0,18.27,10.43,10.93,0,*4C
1501423401.15,30884,25.13,74588.3,18.29,10.71,11.09,0,*46
1501423402.33,30885,25.13,74592.5,18.29,10.51,10.93,0,*47
1501423403.57,30886,25.13,74588.5,18.27,10.61,10.93,0,*49
1501423404.78,30887,25.13,74588.5,18.29,9.85,9.99,0,*46
1501423406.02,30888,25.13,74590.3,18.27,9.95,10.23,0,*7F
1501423407.29,30889,25.13,74590.3,18.27,10.41,10.71,0,*48
1501423408.51,30890,25.13,74590.5,18.25,10.03,10.19,0,*4A
1501423409.7,30891,25.13,74590.8,18.25,9.25,9.47,0,*44
1501423410.93,30892,25.13,74590.0,18.23,9.57,9.67,0,*46
1501423412.15,30893,25.13,74590.3,18.23,9.91,10.09,0,*7D
1501423413.38,30894,25.13,74592.5,18.21,10.05,10.19,0,*4C
1501423414.63,30895,25.13,74590.8,18.19,10.13,10.19,0,*41
1501423415.85,30896,25.13,74590.5,18.19,10.33,10.43,0,*4F
1501423417.12,30897,25.13,74590.0,18.19,10.61,10.75,0,*4C
1501423418.39,30898,25.13,74588.5,18.19,10.61,10.65,0,*42
1501423419.63,30899,25.13,74590.0,18.21,10.71,10.83,0,*41
1501423420.87,30900,25.13,74588.0,18.19,10.41,10.43,0,*44
1501423422.11,30901,25.13,74594.3,18.19,10.41,10.55,0,*42
1501423423.36,30902,25.13,74590.5,18.19,10.13,10.19,0,*4E
1501423424.58,30903,25.13,74588.5,18.17,9.71,9.61,0,*4A
1501423425.81,30904,25.13,74590.0,18.17,10.17,10.27,0,*4F
1501423427.02,30905,25.13,74590.5,18.13,10.55,10.65,0,*4A
1501423428.23,30906,25.13,74594.8,18.13,10.65,10.69,0,*46
1501423429.45,30907,25.13,74592.0,18.13,10.47,10.65,0,*4B
1501423430.67,30908,25.13,74590.5,18.13,10.47,10.57,0,*45
1501423431.91,30909,25.13,74588.0,18.13,10.27,10.27,0,*45
1501423433.15,30910,25.13,74588.8,18.11,10.37,10.55,0,*4B
1501423434.39,30911,25.13,74588.3,18.11,10.99,11.09,0,*46
1501423435.62,30912,25.13,74592.5,18.11,11.13,11.21,0,*4C
1501423436.89,30913,25.13,74590.5,18.11,10.75,10.75,0,*4C
1501423438.15,30914,25.13,74594.5,18.11,10.57,10.65,0,*4A
1501423439.42,30915,25.13,74592.8,18.11,10.27,10.27,0,*4A
1501423440.61,30916,25.13,74590.5,18.09,10.43,10.43,0,*40
1501423441.88,30917,25.13,74588.3,18.11,10.75,10.75,0,*48
1501423443.14,30918,25.13,74590.8,18.11,10.37,10.37,0,*47
1501423444.38,30919,25.13,74592.3,18.09,10.61,10.61,0,*4F
1501423445.58,30920,25.13,74590.8,18.09,10.51,10.51,0,*45
1501423446.83,30921,25.13,74594.5,18.09,10.23,10.31,0,*47
1501423448.08,30922,25.13,74592.3,18.09,10.99,10.99,0,*47
1501423449.32,30923,25.13,74592.3,18.07,10.51,10.61,0,*4B
1501423450.58,30924,25.13,74588.8,18.07,10.37,10.37,0,*4F
1501423451.81,30925,25.13,74590.8,18.09,10.33,10.23,0,*41
1501423453.08,30926,25.13,74588.0,18.07,10.37,10.37,0,*4D
1501423454.3,30927,25.13,74590.3,18.09,10.61,10.51,0,*41
1501423455.57,30928,25.13,74592.3,18.07,10.31,10.37,0,*45
1501423456.79,30929,25.13,74590.0,18.05,10.75,10.69,0,*4D
1501423457.98,30930,25.13,74588.5,18.05,10.51,10.47,0,*4F
1501423459.24,30931,25.13,74594.0,18.07,10.57,10.57,0,*4B
1501423460.49,30932,25.13,74588.3,18.05,10.83,10.83,0,*4A
1501423461.68,30933,25.13,74588.3,18.05,10.51,10.51,0,*4B
1501423462.91,30934,25.13,74590.3,18.07,10.17,10.17,0,*4E
1501423464.16,30935,25.13,74590.0,18.05,10.31,10.31,0,*4D
1501423465.4,30936,25.13,74588.3,18.07,10.51,10.57,0,*4A
1501423466.64,30937,25.13,74590.8,18.05,10.57,10.57,0,*4F
1501423467.85,30938,25.13,74588.5,18.05,10.61,10.69,0,*48
1501423469.03,30939,25.13,74590.3,18.03,10.43,10.43,0,*47
1501423470.22,30940,25.13,74588.5,18.03,10.51,10.51,0,*49
1501423471.42,30941,25.13,74588.8,18.03,10.05,10.05,0,*48
1501423472.65,30942,25.13,74590.0,18.03,10.27,10.37,0,*4A
1501423473.89,30943,25.13,74590.3,18.03,10.65,10.65,0,*4A
1501423475.12,30944,25.13,74588.5,18.01,10.41,10.43,0,*4D
1501423476.39,30945,25.13,74588.5,18.01,10.79,10.79,0,*4E
1501423477.66,30946,25.13,74588.3,18.01,10.75,10.79,0,*41
1501423478.9,30947,25.13,74586.5,18.01,10.65,10.69,0,*40
1501423480.16,30948,25.13,74590.5,18.01,10.61,10.61,0,*43
1501423481.42,30949,25.13,74594.0,18.01,10.31,10.41,0,*45
1501423482.65,30950,25.13,74590.8,17.99,10.13,10.19,0,*4E
1501423483.91,30951,25.13,74588.8,17.97,10.65,10.71,0,*4E
1501423485.12,30952,25.13,74588.8,17.99,10.51,10.61,0,*45
1501423486.31,30953,25.13,74590.0,17.99,10.33,10.43,0,*40
1501423487.55,30954,25.13,74586.5,17.99,10.23,10.31,0,*43
1501423488.82,30955,25.13,74590.8,17.97,10.61,10.65,0,*4B
1501423490.08,30956,25.13,74590.5,17.97,10.57,10.61,0,*49
1501423491.31,30957,25.13,74592.5,17.97,10.51,10.57,0,*4B
1501423492.54,30958,25.13,74590.5,17.95,9.77,9.77,0,*40
1501423493.77,30959,25.13,74590.0,17.91,9.57,9.57,0,*45
1501423495.0,30960,25.13,74590.5,17.91,9.77,9.89,0,*4E
1501423496.24,30961,25.13,74588.0,17.91,10.19,10.31,0,*44
1501423497.48,30962,25.13,74588.8,17.89,10.03,10.19,0,*4F
1501423498.73,30963,25.13,74590.3,17.89,10.09,10.19,0,*44
1501423499.96,30964,25.13,74590.0,17.87,10.31,10.47,0,*4D
1501423501.19,30965,25.13,74594.0,17.87,10.09,10.19,0,*4C
1501423502.4,30966,25.13,74590.0,17.87,10.55,10.75,0,*4C
1501423503.64,30967,25.13,74592.0,17.89,10.85,10.95,0,*40
1501423504.88,30968,25.13,74586.8,17.87,10.61,10.65,0,*44
1501423506.07,30969,25.13,74592.3,17.87,10.47,10.51,0,*46
1501423507.29,30970,25.13,74590.5,17.87,10.55,10.71,0,*4F
1501423508.51,30971,25.13,74590.8,17.87,10.93,10.95,0,*4E
1501423509.75,30972,25.13,74590.8,17.89,10.89,10.99,0,*44
1501423510.96,30973,25.13,74590.8,17.85,11.17,11.21,0,*4D
1501423512.18,30974,25.13,74588.5,17.87,10.83,10.93,0,*4C
1501423513.39,30975,25.13,74592.0,17.87,10.51,10.61,0,*4F
1501423514.63,30976,25.13,74588.3,17.87,10.61,10.65,0,*4B
1501423515.84,30977,25.13,74590.0,17.87,10.55,10.65,0,*4D
1501423517.06,30978,25.13,74592.5,17.87,10.17,10.37,0,*43
1501423518.3,30979,25.13,74588.5,17.85,10.83,10.93,0,*43
1501423519.54,30980,25.13,74590.3,17.85,10.83,10.93,0,*45
1501423520.76,30981,25.13,74588.8,17.85,9.95,10.05,0,*74
1501423522.0,30982,25.13,74588.8,17.85,10.51,10.61,0,*45
1501423523.21,30983,25.13,74590.3,17.83,10.23,10.33,0,*40
1501423524.47,30984,25.13,74590.0,17.85,10.37,10.37,0,*40
1501423525.68,30985,25.13,74590.3,17.83,10.43,10.57,0,*42
1501423526.9,30986,25.13,74590.8,17.85,10.47,10.55,0,*41
1501423528.08,30987,25.13,74590.8,17.83,10.43,10.51,0,*46
1501423529.32,30988,25.13,74590.0,17.83,10.27,10.37,0,*4B
1501423530.53,30989,25.13,74590.0,17.83,10.13,10.27,0,*4C
1501423531.76,30990,25.13,74586.5,17.83,10.17,10.23,0,*44
1501423533.01,30991,25.13,74590.8,17.81,10.09,10.23,0,*48
1501423534.22,30992,25.13,74590.0,17.83,10.37,10.47,0,*46
1501423535.47,30993,25.13,74588.8,17.79,10.19,10.31,0,*4F
1501423536.69,30994,25.13,74588.8,17.79,9.85,10.09,0,*7E
1501423537.93,30995,25.13,74590.8,17.79,10.19,10.37,0,*4F
1501423539.15,30996,25.13,74590.0,17.79,10.43,10.71,0,*41
1501423540.37,30997,25.13,74588.5,17.79,10.37,10.51,0,*41
1501423541.61,30998,25.13,74588.0,17.79,10.27,10.41,0,*4E
1501423542.86,30999,25.13,74588.5,17.77,10.05,10.27,0,*41
1501423544.08,31000,25.13,74588.0,17.79,9.49,9.67,0,*4B
1501423545.29,31001,25.13,74590.0,17.77,9.67,9.95,0,*45
1501423546.56,31002,25.13,74590.5,17.77,9.89,10.19,0,*7A
1501423547.78,31003,25.13,74588.5,17.75,10.03,10.27,0,*4E
1501423548.99,31004,25.13,74592.0,17.75,9.19,9.47,0,*44
1501423550.21,31005,25.13,74592.5,17.73,9.47,9.71,0,*4D
1501423551.44,31006,25.13,74594.0,17.73,9.61,9.91,0,*44
1501423552.67,31007,25.13,74594.8,17.69,9.61,9.89,0,*47
1501423553.91,31008,25.13,74590.5,17.69,9.89,10.19,0,*7F
1501423555.1,31009,25.13,74590.8,17.69,10.09,10.47,0,*45
1501423556.29,31010,25.13,74594.8,17.69,9.99,10.33,0,*7F
1501423557.51,31011,25.13,74594.0,17.69,9.77,10.13,0,*7C
1501423558.7,31012,25.13,74592.5,17.69,9.99,10.43,0,*7A
1501423559.9,31013,25.13,74592.8,17.69,9.35,9.71,0,*44
1501423561.12,31014,25.13,74592.0,17.69,9.67,10.19,0,*72
1501423562.3,31015,25.13,74592.0,17.69,9.99,10.55,0,*7A
1501423563.54,31016,25.13,74592.5,17.67,9.57,10.09,0,*7C
1501423564.77,31017,25.13,74592.8,17.67,9.39,9.99,0,*44
1501423565.96,31018,25.13,74590.8,17.65,9.25,9.91,0,*4C
1501423567.17,31019,25.13,74590.3,17.67,9.21,10.05,0,*7E
1501423568.37,31020,25.13,74588.8,17.67,9.07,9.95,0,*41
1501423569.61,31021,25.13,74590.3,17.67,9.19,10.17,0,*7D
1501423570.82,31022,25.13,74594.0,17.67,9.21,10.05,0,*76
1501423572.06,31023,25.13,74590.8,17.67,8.87,9.57,0,*45
1501423573.24,31024,25.13,74588.3,17.65,8.83,9.47,0,*45
1501423574.45,31025,25.13,74590.5,17.65,8.69,9.35,0,*45
1501423575.65,31026,25.13,74590.8,17.65,8.97,9.75,0,*43
1501423576.85,31027,25.13,74588.0,17.65,9.25,10.05,0,*75
1501423578.07,31028,25.13,74592.8,17.65,9.19,10.13,0,*72
1501423579.28,31029,25.13,74592.5,17.65,9.29,10.37,0,*76
1501423580.49,31030,25.13,74590.0,17.65,8.59,9.75,0,*46
1501423581.7,31031,25.13,74590.3,17.65,8.01,9.19,0,*40
1501423582.88,31032,25.13,74592.8,17.61,7.33,8.61,0,*47
1501423584.13,31033,25.13,74590.8,17.61,8.13,9.49,0,*40
1501423585.34,31034,25.13,74588.0,17.61,7.87,9.25,0,*4F
1501423586.59,31035,25.13,74592.8,17.59,7.61,9.11,0,*4A
1501423587.82,31036,25.13,74594.3,17.59,7.73,9.47,0,*49
1501423589.0,31037,25.13,74590.0,17.57,7.97,9.67,0,*4E
1501423590.24,31038,25.13,74594.3,17.59,8.29,10.05,0,*79
1501423591.48,31039,25.13,74592.0,17.59,8.29,10.05,0,*78
1501423592.71,31040,25.13,74588.3,17.59,8.01,9.77,0,*41
1501423593.92,31041,25.13,74590.8,17.57,8.33,9.99,0,*4F
1501423595.12,31042,25.13,74588.3,17.57,7.83,9.47,0,*4B
1501423596.33,31043,25.13,74590.8,17.57,7.87,9.29,0,*46
1501423597.51,31044,25.13,74588.3,17.57,7.51,8.79,0,*4E
1501423598.69,31045,25.13,74588.0,17.57,7.45,8.61,0,*43
1501423599.94,31046,25.13,74590.0,17.55,7.69,8.71,0,*4D
1501423601.15,31047,25.13,74590.8,17.53,8.15,9.11,0,*49
1501423602.36,31048,25.13,74590.8,17.53,8.23,9.11,0,*43
1501423603.59,31049,25.13,74588.5,17.51,8.69,9.57,0,*4C
1501423604.82,31050,25.13,74594.8,17.51,8.89,9.67,0,*49
1501423606.09,31051,25.13,74592.3,17.51,9.49,10.23,0,*7D
1501423607.3,31052,25.13,74588.5,17.53,9.35,10.03,0,*75
1501423608.54,31053,25.13,74590.3,17.53,8.93,9.57,0,*40
1501423609.75,31054,25.13,74590.0,17.53,9.03,9.61,0,*4A
1501423610.96,31055,25.13,74590.0,17.53,9.25,9.81,0,*41
1501423612.17,31056,25.13,74590.0,17.53,9.25,9.89,0,*4A
1501423613.38,31057,25.13,74588.8,17.53,9.61,10.43,0,*75
1501423614.58,31058,25.13,74590.3,17.53,9.47,10.09,0,*70
1501423615.84,31059,25.13,74588.3,17.55,9.19,9.89,0,*4C
1501423617.02,31060,25.13,74590.3,17.53,9.33,9.99,0,*49
1501423618.26,31061,25.13,74590.0,17.55,9.19,9.95,0,*4A
1501423619.47,31062,25.13,74590.3,17.53,8.89,9.67,0,*4A
1501423620.68,31063,25.13,74590.8,17.53,8.83,9.57,0,*42
1501423621.91,31064,25.13,74588.5,17.53,8.71,9.61,0,*4D
1501423623.14,31065,25.13,74586.5,17.55,8.69,9.49,0,*49
1501423624.38,31066,25.13,74590.3,17.53,8.71,9.81,0,*41
1501423625.56,31067,25.13,74590.5,17.53,8.65,9.71,0,*4A
1501423626.77,31068,25.13,74592.0,17.55,7.97,9.03,0,*44
1501423627.95,31069,25.13,74588.5,17.53,8.15,9.25,0,*42
1501423629.19,31070,25.13,74588.0,17.53,8.55,9.57,0,*4B
1501423630.39,31071,25.13,74590.0,17.51,8.45,9.47,0,*48
1501423631.57,31072,25.13,74588.3,17.53,8.45,9.47,0,*49
1501423632.78,31073,25.13,74590.3,17.53,8.33,9.33,0,*4A
1501423634.01,31074,25.13,74590.8,17.51,8.79,9.77,0,*41
1501423635.22,31075,25.13,74592.0,17.49,8.69,9.57,0,*4A
1501423636.44,31076,25.13,74594.8,17.51,8.65,9.39,0,*44
1501423637.64,31077,25.13,74588.3,17.51,8.45,9.21,0,*4E
1501423638.85,31078,25.13,74592.8,17.49,8.23,9.01,0,*4A
1501423640.1,31079,25.13,74588.5,17.51,8.37,9.11,0,*46
1501423641.35,31080,25.13,74588.3,17.51,8.55,9.15,0,*40
1501423642.59,31081,25.13,74590.8,17.49,8.51,9.19,0,*40
1501423643.82,31082,25.13,74590.8,17.49,7.73,8.33,0,*45
1501423645.05,31083,25.19,74592.8,17.45,7.69,8.37,0,*47
1501423646.28,31084,25.13,74588.0,17.43,8.13,8.79,0,*4E
1501423647.54,31085,25.13,74592.5,17.43,7.91,8.59,0,*48
1501423648.75,31086,25.13,74590.0,17.39,8.09,8.79,0,*4A
1501423649.95,31087,25.13,74590.5,17.37,8.33,9.07,0,*44
1501423651.18,31088,25.13,74588.5,17.37,8.33,9.11,0,*4C
1501423652.39,31089,25.13,74592.0,17.37,8.75,9.75,0,*4D
1501423653.64,31090,25.13,74588.5,17.39,8.59,9.35,0,*41
1501423654.82,31091,25.13,74590.3,17.37,8.65,9.43,0,*40
1501423656.08,31092,25.13,74594.3,17.35,8.41,9.15,0,*44
1501423657.33,31093,25.13,74590.8,17.35,8.75,9.61,0,*41
1501423658.59,31094,25.13,74588.5,17.35,8.41,9.15,0,*42
1501423659.82,31095,25.13,74592.5,17.35,8.51,9.29,0,*4D
1501423661.02,31096,25.13,74592.0,17.31,8.01,8.69,0,*4A
1501423662.23,31097,25.13,74592.8,17.33,8.05,9.01,0,*42
1501423663.43,31098,25.13,74592.0,17.31,8.01,9.07,0,*4D
1501423664.64,31099,25.13,74592.0,17.31,7.97,9.25,0,*4C
1501423665.89,31100,25.13,74592.3,17.31,7.87,9.15,0,*4F
1501423667.13,31101,25.13,74592.0,17.29,7.61,9.01,0,*4A
1501423668.36,31102,25.13,74592.0,17.29,7.87,9.35,0,*46
1501423669.55,31103,25.13,74592.8,17.29,7.79,9.43,0,*47
1501423670.75,31104,25.13,74592.5,17.27,7.51,9.29,0,*48
1501423671.98,31105,25.13,74592.8,17.27,6.91,8.83,0,*45
1501423673.19,31106,25.13,74592.8,17.27,7.05,9.03,0,*43
1501423674.42,31107,25.13,74592.5,17.27,7.15,9.33,0,*40
1501423675.65,31108,25.13,74588.3,17.27,7.41,9.53,0,*48
1501423676.91,31109,25.13,74592.3,17.23,7.15,9.19,0,*42
1501423678.14,31110,25.13,74592.8,17.23,7.47,9.47,0,*46
1501423679.4,31111,25.13,74594.3,17.23,7.23,9.19,0,*4E
1501423680.61,31112,25.13,74592.3,17.21,7.05,8.93,0,*48
1501423681.82,31113,25.13,74594.3,17.21,7.01,8.89,0,*46
1501423683.0,31114,25.13,74592.5,17.17,7.09,8.87,0,*42
1501423684.21,31115,25.13,74594.3,17.15,6.93,8.61,0,*4B
1501423685.44,31116,25.13,74592.8,17.17,6.73,8.41,0,*46
1501423686.65,31117,25.13,74592.3,17.15,7.09,8.65,0,*4F
1501423687.88,31118,25.13,74592.5,17.15,7.61,9.29,0,*47
1501423689.09,31119,25.13,74594.0,17.13,8.05,9.49,0,*4B
1501423690.28,31120,25.13,74592.8,17.13,8.27,9.47,0,*4F
1501423691.49,31121,25.13,74592.3,17.13,7.95,9.03,0,*48
1501423692.72,31122,25.13,74596.0,17.13,8.13,9.15,0,*4D
1501423693.95,31123,25.13,74592.0,17.11,8.75,9.63,0,*4F
1501423695.18,31124,25.13,74594.8,17.11,8.59,9.33,0,*43
1501423696.39,31125,25.13,74594.3,17.09,8.55,9.21,0,*44
1501423697.63,31126,25.13,74594.3,17.11,8.55,9.03,0,*4E
1501423698.84,31127,25.13,74594.3,17.09,8.75,9.25,0,*40
1501423700.1,31128,25.13,74592.5,17.11,8.55,8.75,0,*40
1501423701.31,31129,25.13,74594.3,17.07,8.55,8.83,0,*4F
1501423702.51,31130,25.13,74594.3,17.07,9.07,9.39,0,*41
1501423703.72,31131,25.13,74594.3,17.07,9.29,9.49,0,*4B
1501423704.92,31132,25.13,74594.8,17.07,9.25,9.35,0,*4F
1501423706.1,31133,25.13,74594.0,17.07,9.33,9.43,0,*48
1501423707.35,31134,25.13,74594.8,17.05,9.35,9.39,0,*46
1501423708.58,31135,25.13,74594.8,17.05,8.97,9.07,0,*43
1501423709.81,31136,25.13,74590.0,17.05,9.07,9.15,0,*4B
1501423711.04,31137,25.13,74594.0,17.05,9.03,9.15,0,*4E
1501423712.27,31138,25.13,74590.8,17.01,9.19,9.25,0,*4D
1501423713.47,31139,25.13,74592.3,17.01,8.83,8.79,0,*46
1501423714.7,31140,25.13,74592.8,16.99,9.01,9.11,0,*4C
1501423715.91,31141,25.13,74592.3,16.99,9.11,9.21,0,*4F